Radioactive Concentration measured by Seawater Radiation Monitor near Fukushima Daiichi Nuclear Power Station
Date,Time,Cs137(Bq/L),Cs134(Bq/L),Total β(Bq/L)
2016/10/27,00:00,0.98,0.090,ND
2016/10/27,00:10,0.98,0.10,ND
2016/10/27,00:20,1.0,0.10,ND
2016/10/27,00:30,1.0,0.11,ND
2016/10/27,00:40,1.0,0.11,ND
2016/10/27,00:50,1.0,0.12,ND
2016/10/27,01:00,1.0,0.12,ND
2016/10/27,01:10,1.0,0.11,ND
2016/10/27,01:20,1.0,0.12,ND
2016/10/27,01:30,0.98,0.11,ND
2016/10/27,01:40,0.99,0.095,ND
2016/10/27,01:50,0.94,0.10,ND
2016/10/27,02:00,0.85,0.094,ND
2016/10/27,02:10,0.86,0.085,ND
2016/10/27,02:20,0.83,0.082,9.5
2016/10/27,02:30,0.79,0.095,ND
2016/10/27,02:40,0.79,0.095,ND
2016/10/27,02:50,0.78,0.093,ND
2016/10/27,03:00,0.78,0.088,ND
2016/10/27,03:10,0.78,0.095,ND
2016/10/27,03:20,0.78,0.091,ND
2016/10/27,03:30,0.78,0.086,ND
2016/10/27,03:40,0.80,0.10,ND
2016/10/27,03:50,0.80,0.10,ND
2016/10/27,04:00,0.79,0.098,ND
2016/10/27,04:10,0.80,0.086,ND
2016/10/27,04:20,0.78,0.087,ND
2016/10/27,04:30,0.80,0.080,ND
2016/10/27,04:40,0.79,0.081,ND
2016/10/27,04:50,0.82,0.085,ND
2016/10/27,05:00,0.79,0.099,ND
2016/10/27,05:10,0.78,0.11,ND
2016/10/27,05:20,0.79,0.11,ND
2016/10/27,05:30,0.78,0.11,ND
2016/10/27,05:40,0.78,0.11,ND
2016/10/27,05:50,0.75,0.11,ND
2016/10/27,06:00,0.77,0.10,ND
2016/10/27,06:10,0.81,0.092,ND
2016/10/27,06:20,0.80,0.087,ND
2016/10/27,06:30,0.83,0.077,ND
2016/10/27,06:40,0.84,0.076,ND
2016/10/27,06:50,0.82,0.069,ND
2016/10/27,07:00,0.82,0.070,ND
2016/10/27,07:10,0.79,0.081,ND
2016/10/27,07:20,0.78,0.084,ND
2016/10/27,07:30,0.83,0.096,ND
2016/10/27,07:40,0.81,0.096,ND
2016/10/27,07:50,0.82,0.099,ND
2016/10/27,08:00,0.81,0.11,ND
2016/10/27,08:10,0.82,0.10,ND
2016/10/27,08:20,0.83,0.11,ND
2016/10/27,08:30,0.81,0.12,ND
2016/10/27,08:40,0.84,0.12,ND
2016/10/27,08:50,0.84,0.12,ND
2016/10/27,09:00,0.84,0.12,ND
2016/10/27,09:10,0.86,0.12,ND
2016/10/27,09:20,0.88,0.11,ND
2016/10/27,09:30,0.88,0.12,ND
2016/10/27,09:40,0.86,0.12,ND
2016/10/27,09:50,0.87,0.12,ND
2016/10/27,10:00,0.88,0.11,ND
2016/10/27,10:10,0.89,0.11,ND
2016/10/27,10:20,0.88,0.12,ND
2016/10/27,10:30,0.87,0.11,ND
2016/10/27,10:40,0.90,0.10,ND
2016/10/27,10:50,0.91,0.084,ND
2016/10/27,11:00,0.90,0.082,ND
2016/10/27,11:10,0.89,0.085,ND
2016/10/27,11:20,0.86,0.064,ND
2016/10/27,11:30,0.86,0.077,ND
2016/10/27,11:40,0.87,0.094,ND
2016/10/27,11:50,0.88,0.10,ND
2016/10/27,12:00,0.89,0.11,ND
2016/10/27,12:10,0.90,0.10,ND
2016/10/27,12:20,0.92,0.089,ND
2016/10/27,12:30,0.87,0.065,ND
2016/10/27,12:40,0.88,0.086,ND
2016/10/27,12:50,0.87,0.084,ND
2016/10/27,13:00,0.87,0.074,ND
2016/10/27,13:10,0.85,0.083,ND
2016/10/27,13:20,0.83,0.095,ND
2016/10/27,13:30,0.82,0.10,ND
2016/10/27,13:40,0.83,0.10,ND
2016/10/27,13:50,0.84,0.099,ND
2016/10/27,14:00,0.82,0.11,ND
2016/10/27,14:10,0.82,0.11,ND
2016/10/27,14:20,0.83,0.099,ND
2016/10/27,14:30,0.85,0.095,ND
2016/10/27,14:40,0.84,0.096,ND
2016/10/27,14:50,0.84,0.10,ND
2016/10/27,15:00,0.83,0.11,ND
2016/10/27,15:10,0.85,0.11,ND
2016/10/27,15:20,0.83,0.12,ND
2016/10/27,15:30,0.82,0.12,ND
2016/10/27,15:40,0.83,0.10,ND
2016/10/27,15:50,0.85,0.096,ND
2016/10/27,16:00,0.87,0.10,ND
2016/10/27,16:10,0.90,0.098,ND
2016/10/27,16:20,0.96,0.11,ND
2016/10/27,16:30,0.99,0.11,ND
2016/10/27,16:40,0.99,0.11,ND
2016/10/27,16:50,1.0,0.11,ND
2016/10/27,17:00,0.96,0.090,ND
2016/10/27,17:10,0.98,0.089,ND
2016/10/27,17:20,0.97,0.096,ND
2016/10/27,17:30,0.96,0.097,ND
2016/10/27,17:40,0.96,0.10,ND
2016/10/27,17:50,0.98,0.10,ND
2016/10/27,18:00,0.99,0.10,ND
2016/10/27,18:10,0.98,0.11,ND
2016/10/27,18:20,0.97,0.11,ND
2016/10/27,18:30,0.99,0.11,ND
2016/10/27,18:40,0.98,0.11,ND
2016/10/27,18:50,0.97,0.12,ND
2016/10/27,19:00,0.99,0.12,ND
2016/10/27,19:10,0.98,0.12,ND
2016/10/27,19:20,1.0,0.14,ND
2016/10/27,19:30,1.0,0.14,ND
2016/10/27,19:40,1.0,0.14,ND
2016/10/27,19:50,1.0,0.14,ND
2016/10/27,20:00,1.0,0.14,ND
2016/10/27,20:10,1.0,0.14,ND
2016/10/27,20:20,1.1,0.13,ND
2016/10/27,20:30,1.1,0.12,ND
2016/10/27,20:40,1.1,0.11,ND
2016/10/27,20:50,1.1,0.11,ND
2016/10/27,21:00,1.1,0.11,ND
2016/10/27,21:10,1.1,0.092,ND
2016/10/27,21:20,1.1,0.12,ND
2016/10/27,21:30,1.1,0.11,ND
2016/10/27,21:40,1.1,0.11,ND
2016/10/27,21:50,1.0,0.11,ND
2016/10/27,22:00,1.1,0.12,ND
2016/10/27,22:10,1.1,0.12,ND
2016/10/27,22:20,1.1,0.12,ND
2016/10/27,22:30,1.0,0.12,ND
2016/10/27,22:40,1.0,0.12,ND
2016/10/27,22:50,1.0,0.11,ND
2016/10/27,23:00,0.99,0.10,ND
2016/10/27,23:10,0.96,0.11,ND
2016/10/27,23:20,0.91,0.094,ND
2016/10/27,23:30,0.94,0.12,ND
2016/10/27,23:40,0.93,0.11,ND
2016/10/27,23:50,0.91,0.12,ND
